{"data":{"norad_id":64086,"intl_designator":"2025-107Y","name":"STARLINK-34132","alt_names":[],"object_type":"PAYLOAD","status":"ACTIVE","operator":null,"country":"US","launch_date":"2025-05-21","launch_site_code":"AFETR","launch_vehicle":null,"mission":null,"orbit_class":"UNKNOWN","rcs_meters":null,"size_class":null,"mass_kg":null,"dimensions":null,"purposes":["comms"],"wikipedia_slug":null,"has_3d_model":false,"image_url":null,"decayed_at":null,"tle_current":{"epoch":"2026-09-20T04:24:14.279904Z","epoch_age_seconds":170923,"freshness":"FRESH","line1":"1 64086U 25107Y   26263.18349861  .00012982  00000+0  48024-3 0  9990","line2":"2 64086  43.0034 183.3288 0001748 260.2624  99.8031 15.27594212 75836","mean_motion":15.27594212,"eccentricity":0.0001748,"inclination_deg":43.0034,"raan_deg":183.3288,"arg_perigee_deg":260.2624,"mean_anomaly_deg":99.8031,"bstar":0.00048024,"rev_number":7583,"period_min":94.265871701274,"perigee_km":481.80721263796,"apogee_km":484.20586841973,"semimajor_km":6861.1435405288,"source":"CELESTRAK","updated_at":"2026-09-21T09:00:35.225958Z"}}}